Regional Weather Roundup
Issued by NWS Kansas City/Pleasant Hill, MO

Home | Current Version | Previous Version | Text Only | Print | Product List | Glossary On
Versions: 1 2 3 4 5 6 7 8 9 10 11 12 13 14 15 16 17 18 19 20 21 22 23 24 25 26 27 28 29 30 31 32 33 34 35 36 37 38 39 40 41 42 43 44 45 46 47 48 49 50
000
ASUS43 KEAX 061104
RWREAX

WEATHER ROUNDUP FOR EASTERN KANSAS AND NORTHWEST MISSOURI
NATIONAL WEATHER SERVICE KANSAS CITY/PLEASANT HILL MO
500 AM CST FRI MAR 06 2015

KSZ040-057-103>105-MOZ028-029-037-043-061200-
...KANSAS CITY METROPOLITAN AREA...

CITY           SKY/WX    TMP DP  RH WIND       PRES   REMARKS
K.C. INTL      CLEAR     27  17  66 S17G26    30.30F WCI  14
K.C. DOWNTOWN  CLEAR     30  16  56 S14       30.34F WCI  19
LEES SUMMIT    CLEAR     24  15  68 S12       30.34F WCI  13
OLATHE - IXD   CLEAR     24  17  74 S16       30.33F WCI  11
OLATHE - OJC   CLEAR     26  18  71 S12       30.33F WCI  16
LAWRENCE       CLEAR     27  17  66 S8        30.33F WCI  19

$$

MOZ001>008-011>017-020>025-030>033-038>040-044>046-053-054-061200-
...NORTHERN AND CENTRAL MISSOURI...

CITY           SKY/WX    TMP DP  RH WIND       PRES   REMARKS
ST. JOSEPH     CLEAR     27  17  66 S15       30.29F WCI  15
MOSBY          MOSUNNY   27  16  63 S6        30.35F WCI  20
WARRENSBURG    CLEAR     27  16  63 S12G18    30.38F WCI  16
WHITEMAN AFB   CLEAR     22  13  70 S13       30.38F WCI   9
CLINTON        CLEAR     27  18  69 S9        30.43S WCI  17
SEDALIA        CLEAR     25  12  58 S12       30.41F WCI  14
WARSAW         NOT AVBL
MARSHALL       CLEAR     25  14  63 S10       30.42F WCI  15
CHILLICOTHE      N/A     23  11  60 S9        30.36F WCI  13
MOBERLY        CLEAR     19   9  63 S10       30.42F WCI   8
KIRKSVILLE     CLEAR     18  11  74 S12       30.37F WCI   5

$$

MOZ041-047>049-056>058-063>065-088>090-097-061200-
...EASTERN AND SOUTHERN MISSOURI...

CITY           SKY/WX    TMP DP  RH WIND       PRES   REMARKS
ST. LOUIS INTL PTCLDY    17   6  62 S8        30.53S WCI   7
SPIRIT OF STL  CLEAR     15   6  67 CALM      30.52F
COLUMBIA       CLEAR     17   9  70 S12       30.44F WCI   4
JEFFERSON CITY CLEAR     16   9  74 E7        30.49F WCI   6
MEXICO         CLEAR     18  12  79 S8        30.45F WCI   7
HANNIBAL       CLEAR     14   5  67 S8        30.44F WCI   3
ROLLA          CLEAR     19   8  62 S10       30.45S WCI   7
LEBANON        CLEAR     19   9  63 S6        30.45S WCI  11
OSAGE BEACH    CLEAR     18   9  68 SE6       30.45F WCI   9
SPRINGFIELD    CLEAR     21  12  68 S13       30.45S WCI   9
NEVADA         CLEAR     25  18  74 S13       30.44S WCI  13
JOPLIN         CLEAR     28  16  60 S13       30.46S WCI  17
WEST PLAINS    CLEAR     14   7  73 S3        30.51R

$$

IAZ060-094-KSZ022-034>040-054-083-096-NEZ052-066-093-061200-
...KANSAS...SOUTHEAST NEBRASKA AND IOWA...

CITY           SKY/WX    TMP DP  RH WIND       PRES   REMARKS
TOPEKA         CLEAR     29  18  63 SW8       30.32S WCI  21
MANHATTAN      CLEAR     28  21  75 SW7       30.30S WCI  21
EMPORIA        FAIR      30  19  63 SW12      30.34R WCI  20
CHANUTE        CLEAR     26  19  74 S12       30.41F WCI  16
WICHITA        CLEAR     25  18  74 S8        30.37R WCI  16
OMAHA          CLEAR     20  13  74 SE9       30.20S WCI   9
LINCOLN        CLEAR     26  14  60 SW6       30.20F WCI  19
FALLS CITY     CLEAR     25  17  72 SW7       30.24S WCI  17
LAMONI         CLOUDY    20  11  68 S14       30.25F WCI   7
DES MOINES     MOCLDY    24  11  57 S17       30.22F WCI  11

$$




USA.gov is the U.S. government's official web portal to all federal, state and local government web resources and services.